Precipitation
CZ | SK | EN 
Station: Les Království
River: Labe
Date Water level [m. n. m.] Outflow [m3s-1]
06.05.2026 14:10 316,71 4,28
06.05.2026 14:00 316,71 4,28
06.05.2026 13:00 316,71 4,27
06.05.2026 12:00 316,71 4,27
06.05.2026 11:00 316,70 4,29
06.05.2026 10:00 316,69 4,29
06.05.2026 09:00 316,69 4,26
06.05.2026 08:00 316,69 4,29
06.05.2026 07:00 316,69 4,28
06.05.2026 06:00 316,68 4,27
06.05.2026 05:00 316,68 4,29
06.05.2026 04:00 316,68 4,27
06.05.2026 03:00 316,68 4,27
06.05.2026 02:00 316,67 4,27
06.05.2026 01:00 316,67 4,27
06.05.2026 00:00 316,67 4,28
05.05.2026 23:00 316,66 4,27
05.05.2026 22:00 316,66 4,27
05.05.2026 21:00 316,66 4,26
05.05.2026 20:00 316,65 4,27
05.05.2026 19:00 316,64 4,27
05.05.2026 18:00 316,64 4,28
05.05.2026 17:00 316,63 4,27
05.05.2026 16:00 316,62 4,26
05.05.2026 15:00 316,62 4,26
05.05.2026 07:00 316,59 4,27
04.05.2026 07:00 316,52 4,29
03.05.2026 07:00 316,48 4,27
02.05.2026 07:00 316,51 4,27
01.05.2026 07:00 316,45 4,26
30.04.2026 07:00 316,32 4,26
Graf

Graf